Change the Weather History Date:

Tuesday, July 9, 2013

  Actual Average (KLVN) Record (KLVN)
Temperature  
Mean Temperature 76 °F -  
Max Temperature 83 °F 83 °F 97 °F (1976)
Min Temperature 69 °F 62 °F 51 °F (1953)
Cooling Degree Days 11    
Growing Degree Days 26 (Base 50)    
Moisture  
Dew Point 68 °F    
Average Humidity 73    
Maximum Humidity 92    
Minimum Humidity 59    
Precipitation  
Precipitation 0.70 in - - ()
Sea Level Pressure  
Sea Level Pressure 29.87 in    
Wind  
Wind Speed 7 mph (SW)    
Max Wind Speed 28 mph    
Max Gust Speed 38 mph    
Visibility 10 miles    
Events Rain , Thunderstorm    
Averages and records for this station are not official NWS values.
T = Trace of Precipitation, MM = Missing Value Source: NWS Daily Summary

Daily Weather History Graph

Daily Weather History Graph

Search for Another Location

Airport or City:

Trip Planner

Search our weather history database for the weather conditions in past years. The results will help you decide how hot, cold, wet, or windy it might be!

Date:

Astronomy

Jul. 09, 2013 Rise Set
Actual Time 5:36 AM CDT 8:57 PM CDT
Civil Twilight 5:00 AM CDT 9:33 PM CDT
Nautical Twilight 4:13 AM CDT 10:20 PM CDT
Astronomical Twilight 3:14 AM CDT 11:18 PM CDT
Moon 7:07 AM CDT (7/9) 9:28 PM CDT (7/9)
Length of Visible Light 16h 32m
Length of Day
15h 20m
New Moon, 2% of the Moon is Illuminated
Jul 9
New Moon
Jul 15
First Quarter
Jul 22
Full
Jul 29
Last Quarter
Aug 6
New

Hourly Weather History & Observations

Time (CDT) Temp. Heat Index Dew Point Humidity Pressure Visibility Wind Dir Wind Speed Gust Speed Precip Events Conditions
12:13 AM 72.9 °F - 68.2 °F 85% 29.95 in 10.0 mi ENE 3.5 mph - N/A   Clear
12:33 AM 71.8 °F - 67.5 °F 86% 29.95 in 10.0 mi Calm Calm - N/A   Clear
12:53 AM 71.6 °F - 66.7 °F 85% 29.95 in 10.0 mi Calm Calm - N/A   Clear
1:13 AM 69.8 °F - 65.8 °F 87% 29.95 in 7.0 mi Calm Calm - N/A   Clear
1:33 AM 70.5 °F - 67.1 °F 89% 29.95 in 7.0 mi Calm Calm - N/A   Clear
1:53 AM 71.6 °F - 67.6 °F 87% 29.94 in 10.0 mi Calm Calm - N/A   Clear
2:13 AM 71.8 °F - 67.3 °F 86% 29.94 in 10.0 mi Calm Calm - N/A   Clear
2:33 AM 71.8 °F - 67.8 °F 87% 29.93 in 10.0 mi Calm Calm - N/A   Clear
2:53 AM 72.3 °F - 68.0 °F 86% 29.92 in 10.0 mi Calm Calm - N/A   Clear
3:13 AM 73.4 °F - 68.2 °F 84% 29.92 in 10.0 mi Calm Calm - N/A   Scattered Clouds
3:32 AM 75.0 °F - 68.4 °F 80% 29.91 in 10.0 mi SE 4.6 mph - N/A   Scattered Clouds
3:53 AM 76.6 °F - 68.2 °F 75% 29.90 in 10.0 mi SE 6.9 mph - N/A   Clear
4:13 AM 76.8 °F - 68.2 °F 75% 29.89 in 10.0 mi SE 9.2 mph - N/A   Scattered Clouds
4:33 AM 76.8 °F - 68.2 °F 75% 29.89 in 10.0 mi SE 6.9 mph - N/A   Mostly Cloudy
4:53 AM 76.5 °F - 68.2 °F 75% 29.89 in 10.0 mi SE 5.8 mph - N/A   Scattered Clouds
5:13 AM 76.5 °F - 68.4 °F 76% 29.89 in 10.0 mi SSE 5.8 mph - N/A   Scattered Clouds
5:33 AM 75.9 °F - 68.9 °F 79% 29.89 in 10.0 mi SSE 6.9 mph - N/A   Scattered Clouds
5:53 AM 76.1 °F - 68.9 °F 78% 29.87 in 10.0 mi SE 5.8 mph - N/A   Clear
6:13 AM 76.1 °F - 69.3 °F 79% 29.86 in 10.0 mi SSE 6.9 mph - N/A   Clear
6:33 AM 76.1 °F - 69.4 °F 80% 29.85 in 10.0 mi SSE 6.9 mph - N/A   Clear
6:53 AM 76.1 °F - 69.6 °F 80% 29.83 in 7.0 mi SSE 10.4 mph - N/A   Scattered Clouds
7:13 AM 76.5 °F - 69.8 °F 80% 29.83 in 7.0 mi South 8.1 mph - N/A   Clear
7:33 AM 76.3 °F - 70.2 °F 81% 29.82 in 7.0 mi SSE 12.7 mph 17.3 mph N/A   Clear
7:53 AM 76.3 °F - 70.7 °F 83% 29.84 in 7.0 mi SW 8.1 mph - N/A Rain , Thunderstorm Light Thunderstorms and Rain
8:13 AM 75.0 °F - 70.9 °F 87% 29.91 in 4.0 mi WSW 27.6 mph 38.0 mph 0.17 in Rain , Thunderstorm Heavy Thunderstorms and Rain
8:33 AM 70.2 °F - 67.3 °F 91% 29.90 in 3.0 mi WSW 6.9 mph - 0.63 in Rain , Thunderstorm Heavy Thunderstorms and Rain
8:53 AM 70.2 °F - 67.6 °F 92% 29.88 in 7.0 mi SSE 6.9 mph - 0.66 in Rain , Thunderstorm Rain
9:13 AM 70.7 °F - 68.0 °F 91% 29.81 in 7.0 mi ESE 12.7 mph - 0.02 in Rain Rain
9:33 AM 71.2 °F - 68.0 °F 89% 29.77 in 10.0 mi ESE 15.0 mph 21.9 mph 0.04 in Rain Light Rain
9:53 AM 72.5 °F - 68.4 °F 87% 29.79 in 10.0 mi SSE 10.4 mph 17.3 mph 0.04 in   Clear
10:13 AM 74.5 °F - 68.7 °F 82% 29.82 in 10.0 mi South 6.9 mph 16.1 mph N/A   Clear
10:33 AM 76.1 °F - 68.9 °F 78% 29.84 in 10.0 mi South 5.8 mph - N/A   Clear
10:53 AM 77.5 °F - 68.5 °F 74% 29.84 in 10.0 mi South 6.9 mph - N/A   Clear
11:13 AM 78.8 °F - 69.3 °F 72% 29.84 in 10.0 mi South 8.1 mph - N/A   Clear
11:33 AM 80.1 °F 82.9 °F 69.3 °F 69% 29.84 in 10.0 mi South 9.2 mph - N/A   Clear
11:53 AM 80.8 °F 83.8 °F 68.9 °F 67% 29.84 in 10.0 mi SSW 12.7 mph 17.3 mph N/A   Clear
12:13 PM 81.7 °F 84.3 °F 67.6 °F 62% 29.84 in 10.0 mi SW 13.8 mph 18.4 mph N/A   Clear
12:33 PM 82.0 °F 84.9 °F 67.8 °F 62% 29.84 in 10.0 mi WSW 12.7 mph 19.6 mph N/A   Clear
12:53 PM 82.4 °F 85.2 °F 67.6 °F 61% 29.84 in 10.0 mi WSW 16.1 mph 23.0 mph N/A   Scattered Clouds
1:13 PM 82.6 °F 85.5 °F 67.8 °F 61% 29.84 in 10.0 mi WSW 16.1 mph 21.9 mph N/A   Mostly Cloudy
1:33 PM 82.6 °F 85.5 °F 68.0 °F 61% 29.83 in 10.0 mi West 18.4 mph 24.2 mph N/A   Mostly Cloudy
1:53 PM 82.8 °F 86.0 °F 68.5 °F 62% 29.84 in 10.0 mi West 16.1 mph 20.7 mph N/A   Mostly Cloudy
2:13 PM 82.0 °F 84.9 °F 68.0 °F 62% 29.84 in 10.0 mi West 15.0 mph - N/A   Mostly Cloudy
2:33 PM 82.9 °F 86.0 °F 68.2 °F 61% 29.84 in 10.0 mi West 12.7 mph 21.9 mph N/A   Scattered Clouds
2:53 PM 82.6 °F 85.3 °F 67.5 °F 60% 29.84 in 10.0 mi West 16.1 mph 23.0 mph N/A   Scattered Clouds
3:13 PM 82.4 °F 85.0 °F 67.3 °F 60% 29.84 in 10.0 mi West 18.4 mph 25.3 mph N/A   Scattered Clouds
3:32 PM 82.9 °F 85.8 °F 67.8 °F 60% 29.85 in 10.0 mi WNW 13.8 mph 20.7 mph N/A   Scattered Clouds
3:53 PM 82.8 °F 85.8 °F 68.2 °F 61% 29.84 in 10.0 mi West 16.1 mph 20.7 mph N/A   Mostly Cloudy
4:13 PM 82.8 °F 85.8 °F 68.0 °F 61% 29.84 in 10.0 mi West 15.0 mph 19.6 mph N/A   Mostly Cloudy
4:33 PM 83.3 °F 86.2 °F 67.5 °F 59% 29.84 in 10.0 mi West 15.0 mph 21.9 mph N/A   Mostly Cloudy
4:53 PM 83.3 °F 86.4 °F 68.2 °F 60% 29.84 in 10.0 mi West 11.5 mph 20.7 mph N/A   Scattered Clouds
5:12 PM 83.5 °F 86.7 °F 68.2 °F 60% 29.85 in 10.0 mi West 12.7 mph 20.7 mph N/A   Clear
5:33 PM 83.7 °F 86.7 °F 68.0 °F 59% 29.85 in 10.0 mi West 12.7 mph 21.9 mph N/A   Scattered Clouds
5:53 PM 83.3 °F 86.4 °F 68.2 °F 60% 29.85 in 10.0 mi West 16.1 mph 20.7 mph N/A   Clear
6:12 PM 83.1 °F 86.1 °F 67.8 °F 60% 29.85 in 10.0 mi West 12.7 mph 19.6 mph N/A   Clear
6:33 PM 82.8 °F 85.5 °F 67.8 °F 60% 29.85 in 10.0 mi West 12.7 mph - N/A   Clear
6:53 PM 82.6 °F 85.5 °F 67.8 °F 61% 29.85 in 10.0 mi West 11.5 mph 19.6 mph N/A   Clear
7:13 PM 82.4 °F 85.2 °F 67.8 °F 61% 29.86 in 10.0 mi West 11.5 mph - N/A   Clear
7:33 PM 81.5 °F 84.2 °F 68.0 °F 63% 29.86 in 10.0 mi West 10.4 mph - N/A   Clear
7:53 PM 81.1 °F 83.9 °F 68.0 °F 64% 29.86 in 10.0 mi West 9.2 mph - N/A   Clear
8:13 PM 80.4 °F 83.0 °F 67.6 °F 65% 29.86 in 10.0 mi West 8.1 mph - N/A   Clear
8:33 PM 79.7 °F - 67.3 °F 66% 29.86 in 10.0 mi West 8.1 mph - N/A   Clear
8:53 PM 78.8 °F - 67.3 °F 68% 29.86 in 10.0 mi West 8.1 mph - N/A   Clear
9:13 PM 77.9 °F - 67.5 °F 70% 29.88 in 10.0 mi West 9.2 mph 16.1 mph N/A   Clear
9:33 PM 77.2 °F - 67.1 °F 71% 29.88 in 10.0 mi West 5.8 mph - N/A   Clear
9:53 PM 76.5 °F - 66.7 °F 72% 29.88 in 10.0 mi West 6.9 mph - N/A   Clear
10:13 PM 75.9 °F - 66.4 °F 72% 29.88 in 10.0 mi West 6.9 mph - N/A   Clear
10:33 PM 75.2 °F - 65.7 °F 72% 29.89 in 10.0 mi West 6.9 mph - N/A   Clear
10:53 PM 74.7 °F - 65.8 °F 74% 29.90 in 10.0 mi West 6.9 mph - N/A   Clear
11:13 PM 74.5 °F - 66.2 °F 75% 29.90 in 10.0 mi West 8.1 mph - N/A   Clear
11:33 PM 73.9 °F - 66.2 °F 77% 29.90 in 10.0 mi West 6.9 mph - N/A   Clear
11:53 PM 73.4 °F - 66.2 °F 78% 29.91 in 10.0 mi WNW 9.2 mph - N/A   Clear